Le nostre stazioni meteo in Italia

Pubblicità
Il mio iltempo24.it
Firenze/Peretola, Italia (16170): Temperatura & dewpoint: 17.01.2019 05:00:00 - 23.01.2019 05:00:00 (CET)Firenze/Peretola, Italia (16170): velocità del vento: 17.01.2019 05:00:00 - 23.01.2019 05:00:00 (CET)Firenze/Peretola, Italia (16170): direzione del vento: 17.01.2019 05:00:00 - 23.01.2019 05:00:00 (CET)Firenze/Peretola, Italia (16170): reduced air pressure: 17.01.2019 05:00:00 - 23.01.2019 05:00:00 (CET)Firenze/Peretola, Italia (16170): visibility: 17.01.2019 05:00:00 - 23.01.2019 05:00:00 (CET)Firenze/Peretola, Italia (16170): precipitazioni: 17.01.2019 05:00:00 - 23.01.2019 05:00:00 (CET)
Data & Tempo tt [°C] td [°C] ff [km/h] ff [kn] dd ppp [hPa] vv [km] rr [mm]
23.01.2019 05:00:00 2,0 1,0 4 2 NO - 8 -
23.01.2019 04:00:00 2,1 1,5 2 1 - 1000,1 10 0,0
23.01.2019 03:00:00 2,0 2,0 4 2 - - 10 -
23.01.2019 02:00:00 2,0 2,0 5 3 E - 10 -
23.01.2019 01:00:00 2,3 1,4 5 3 SSE 1001,7 10 -
23.01.2019 00:00:00 2,0 1,0 4 2 - - 10 -
22.01.2019 23:00:00 2,0 1,0 5 3 SE - 10 -
22.01.2019 22:00:00 2,5 1,5 5 3 SE 1003,0 10 0,0
22.01.2019 21:00:00 3,0 1,0 2 1 SSE - 10 -
22.01.2019 20:00:00 4,0 2,0 9 5 S - 10 -
22.01.2019 19:00:00 3,3 1,3 9 5 S 1003,5 10 -
22.01.2019 18:00:00 4,0 0,0 8 4 ONO - 10 -
22.01.2019 17:00:00 4,0 0,0 15 8 NO - 10 -
22.01.2019 16:00:00 4,2 -0,4 15 8 NO 1004,5 10 0,0
22.01.2019 15:00:00 4,0 0,0 11 6 NO - 10 -
22.01.2019 14:00:00 5,0 0,0 11 6 NNO - 10 -
22.01.2019 13:00:00 4,9 -0,8 15 8 NO 1006,1 10 -
22.01.2019 12:00:00 5,0 -1,0 18 10 NNO - 10 -
22.01.2019 11:00:00 5,0 -1,0 13 7 NNO - 10 -
22.01.2019 10:00:00 5,4 -1,4 8 4 - 1008,2 10 0,0
22.01.2019 09:00:00 6,0 -2,0 9 5 NNO - 10 -
22.01.2019 08:00:00 6,0 -2,0 16 9 NO - 10 -
22.01.2019 07:00:00 5,9 -2,1 16 9 ONO 1007,9 10 -
22.01.2019 06:00:00 6,0 -2,0 9 5 N - 10 -
22.01.2019 05:00:00 6,0 -2,0 18 10 ONO - 10 -
22.01.2019 04:00:00 5,6 -2,6 15 8 NNO 1009,7 10 0,0
22.01.2019 03:00:00 6,0 -1,0 8 4 - - 10 -
22.01.2019 02:00:00 6,0 -1,0 13 7 O - 10 -
22.01.2019 01:00:00 5,9 -1,5 9 5 OSO 1012,1 10 -
22.01.2019 00:00:00 6,0 -1,0 5 3 - - 10 -
21.01.2019 23:00:00 7,0 0,0 9 5 - - 10 -
21.01.2019 22:00:00 6,1 1,0 13 7 ONO 1013,1 10 0,0
21.01.2019 21:00:00 7,0 1,0 11 6 ONO - 10 -
21.01.2019 20:00:00 7,0 0,0 8 4 SO - 10 -
21.01.2019 19:00:00 6,9 0,1 8 4 - 1013,0 10 -
21.01.2019 18:00:00 7,0 0,0 9 5 NO - 10 -
21.01.2019 17:00:00 7,0 0,0 5 3 - - 10 -
21.01.2019 16:00:00 6,9 0,3 9 5 - 1013,3 10 0,0
21.01.2019 15:00:00 7,0 1,0 16 9 NNE - 10 -
21.01.2019 14:00:00 8,0 0,0 9 5 - - 10 -
21.01.2019 13:00:00 7,3 -0,2 16 9 N 1014,1 10 -
21.01.2019 12:00:00 7,0 0,0 13 7 N - 10 -
21.01.2019 11:00:00 8,0 1,0 4 2 - - 10 -
21.01.2019 10:00:00 7,5 0,7 9 5 - 1014,5 10 0,0
21.01.2019 09:00:00 6,0 1,0 8 4 OSO - 10 -
21.01.2019 08:00:00 5,0 1,0 8 4 SO - 10 -
21.01.2019 07:00:00 4,9 0,8 5 3 S 1013,9 10 -
21.01.2019 06:00:00 6,0 1,0 13 7 ENE - 10 -
21.01.2019 05:00:00 6,0 1,0 11 6 - - 10 -
21.01.2019 04:00:00 6,0 1,0 8 4 - 1014,2 10 0,0
21.01.2019 03:00:00 6,0 1,0 5 3 O - 10 -
21.01.2019 02:00:00 4,0 1,0 5 3 OSO - 10 -
21.01.2019 01:00:00 3,5 1,4 4 2 - 1014,2 10 -
21.01.2019 00:00:00 5,0 2,0 8 4 SSO - 10 -
20.01.2019 23:00:00 5,0 2,0 4 2 - - 10 -
20.01.2019 22:00:00 4,5 2,0 4 2 SSO 1014,3 10 0,0
20.01.2019 21:00:00 5,0 2,0 4 2 - - 10 -
20.01.2019 20:00:00 6,0 2,0 4 2 S - 10 -
20.01.2019 19:00:00 6,9 2,8 8 4 S 1013,1 10 -
20.01.2019 18:00:00 7,0 3,0 2 1 - - 10 -
20.01.2019 17:00:00 9,0 3,0 8 4 NNE - 10 -
20.01.2019 16:00:00 10,2 3,8 8 4 ENE 1012,4 10 0,0
20.01.2019 15:00:00 10,0 4,0 5 3 E - 10 -
20.01.2019 14:00:00 10,0 4,0 4 2 - - 10 -
20.01.2019 13:00:00 10,6 4,3 8 4 ONO 1013,2 10 -
20.01.2019 12:00:00 9,0 4,0 4 2 - - 10 -
20.01.2019 11:00:00 8,0 4,0 2 1 - - 10 -
20.01.2019 10:00:00 6,4 4,3 2 1 - 1014,0 10 0,0
20.01.2019 09:00:00 5,0 4,0 4 2 SSO - 10 -
20.01.2019 08:00:00 5,0 4,0 2 1 - - 10 -
20.01.2019 07:00:00 5,1 3,3 2 1 - 1013,1 10 -
20.01.2019 06:00:00 5,0 3,0 2 1 - - 10 -
20.01.2019 05:00:00 5,0 2,0 4 2 - - 10 -
20.01.2019 04:00:00 4,5 2,4 2 1 - 1013,3 10 0,0
20.01.2019 03:00:00 5,0 2,0 2 1 - - 10 -
20.01.2019 02:00:00 4,0 2,0 2 1 - - 10 -
20.01.2019 01:00:00 4,5 1,4 2 1 - 1013,7 10 -
20.01.2019 00:00:00 4,0 2,0 2 1 ENE - 10 -
19.01.2019 23:00:00 5,0 1,0 2 1 - - 10 -
19.01.2019 22:00:00 4,9 1,3 2 1 - 1014,3 10 0,0
19.01.2019 21:00:00 6,0 1,0 8 4 SSO - 10 -
19.01.2019 20:00:00 7,0 1,0 4 2 - - 10 -
19.01.2019 19:00:00 7,1 0,4 4 2 - 1013,6 10 -
19.01.2019 18:00:00 8,0 1,0 9 5 N - 10 -
19.01.2019 17:00:00 8,0 1,0 8 4 N - 10 -
19.01.2019 16:00:00 8,8 1,1 8 4 - 1013,3 10 0,0
19.01.2019 15:00:00 10,0 2,0 15 8 NNE - 10 -
19.01.2019 14:00:00 10,0 2,0 11 6 NE - 10 -
19.01.2019 13:00:00 10,4 1,2 11 6 NNE 1013,9 10 -
19.01.2019 12:00:00 10,0 1,0 16 9 NNE - 10 -
19.01.2019 11:00:00 9,0 2,0 8 4 E - 10 -
19.01.2019 10:00:00 7,4 3,2 8 4 S 1014,9 10 0,0
19.01.2019 09:00:00 6,0 3,0 8 4 SSO - 10 -
19.01.2019 08:00:00 5,0 3,0 13 7 SSO - 10 -
19.01.2019 07:00:00 5,4 2,4 4 2 - 1013,8 10 -
19.01.2019 06:00:00 5,0 3,0 9 5 S - 10 -
19.01.2019 05:00:00 6,0 4,0 8 4 SO - 10 -
19.01.2019 04:00:00 6,1 3,9 5 3 S 1014,0 10 0,0
19.01.2019 03:00:00 7,0 4,0 8 4 SE - 10 -
19.01.2019 02:00:00 6,0 4,0 4 2 SSO - 10 -
19.01.2019 01:00:00 5,7 3,3 2 1 - 1014,3 10 -
19.01.2019 00:00:00 6,0 4,0 5 3 SSO - 10 -
18.01.2019 23:00:00 7,0 4,0 2 1 - - 10 -
18.01.2019 22:00:00 7,7 3,8 4 2 - 1013,7 10 0,0
18.01.2019 21:00:00 8,0 4,0 8 4 OSO - 10 -
18.01.2019 20:00:00 8,0 4,0 5 3 SSO - 10 -
18.01.2019 19:00:00 7,0 3,3 4 2 - 1012,7 10 -
18.01.2019 18:00:00 10,0 3,0 11 6 NNE - 10 -
18.01.2019 17:00:00 11,0 3,0 4 2 - - 10 -
18.01.2019 16:00:00 13,1 3,8 2 1 - 1011,2 10 0,0
18.01.2019 15:00:00 13,0 4,0 8 4 ESE - 10 -
18.01.2019 14:00:00 13,0 3,0 4 2 - - 10 -
18.01.2019 13:00:00 12,9 5,0 8 4 NNO 1010,8 10 -
18.01.2019 12:00:00 13,0 6,0 4 2 - - 10 -
18.01.2019 11:00:00 11,0 7,0 5 3 ESE - 10 -
18.01.2019 10:00:00 9,3 7,5 4 2 - 1011,2 10 0,0
18.01.2019 09:00:00 8,0 7,0 8 4 E - 10 -
18.01.2019 08:00:00 7,0 7,0 4 2 - - 10 -
18.01.2019 07:00:00 7,9 7,6 5 3 S 1009,9 9 -
18.01.2019 06:00:00 7,0 7,0 2 1 - - 10 -
18.01.2019 05:00:00 8,0 8,0 5 3 NNE - 10 -
18.01.2019 04:00:00 9,3 7,8 5 3 N 1010,1 10 0,0
18.01.2019 03:00:00 9,0 8,0 9 5 ESE - 10 -
18.01.2019 02:00:00 9,0 8,0 9 5 ESE - 10 -
18.01.2019 01:00:00 8,3 7,9 5 3 ESE 1011,1 10 -
18.01.2019 00:00:00 8,0 8,0 4 2 - - 10 -
17.01.2019 23:00:00 8,0 7,0 5 3 ENE - 10 -
17.01.2019 22:00:00 9,3 7,3 9 5 ESE 1012,4 10 0,0
17.01.2019 21:00:00 9,0 7,0 2 1 - - 10 -
17.01.2019 20:00:00 10,0 7,0 11 6 ESE - 10 -
17.01.2019 19:00:00 9,3 7,0 8 4 E 1012,7 10 -
17.01.2019 18:00:00 9,0 7,0 9 5 ESE - 10 -
17.01.2019 17:00:00 - - - - - - - -
17.01.2019 16:00:00 10,4 7,5 13 7 ESE 1013,4 10 0,0
17.01.2019 15:00:00 11,0 8,0 9 5 E - 10 -
17.01.2019 14:00:00 10,0 8,0 13 7 E - 10 -
17.01.2019 13:00:00 10,1 7,2 13 7 E 1014,7 10 -
17.01.2019 12:00:00 10,0 7,0 13 7 E - 10 -
17.01.2019 11:00:00 10,0 7,0 11 6 E - 10 -
17.01.2019 10:00:00 9,3 6,8 13 7 ESE 1016,8 10 0,0
17.01.2019 09:00:00 9,0 7,0 11 6 E - 10 -
17.01.2019 08:00:00 9,0 7,0 18 10 ESE - 10 -
17.01.2019 07:00:00 8,7 7,6 15 8 ESE 1017,0 10 -
17.01.2019 06:00:00 9,0 8,0 18 10 SE - 7 -
17.01.2019 05:00:00 9,0 8,0 8 4 ESE - 8 -

tt = Temperatura
td = dewpoint
ff = velocità del vento
dd = direzione del vento
ppp = reduced air pressure
vv = visibility
rr = precipitazioni

Stazioni seguenti

WeatherPro
AMSI
MeteoEarth